NOAA 16 DEB, 42355

Orbit data source: Space-Track

NOAA 16 DEB, 42355 is space debris in SSO originally from a launch on Thu, 21 Sep 2000 UTC launched from the Air Force Western Test Range (AFWTR). Debris objects in space refer to the collection of defunct objects orbiting the Earth. Examples of debris include non-operational satellites, rocket bodies, and fragments generated from explosions, collisions, or faulty payload assembly.

Loading next visibility...
Identifier
42355, 2000-055QX
Orbit
SSO
Country
Flag of USUS
Related business
Manufacturer
Unknown
Mission
Spacecraft
Bus & Motor
Unknown
Mass
Unknown
Launch date (UTC)
2000-09-21 (25 years ago)
Launch vehicle
Unknown
Launch site
Air Force Western Test Range (AFWTR)
Object type
Payload
Rocket body
Debris
Shape & HBR
Unknown shape, 0.1 m
Radar Cross Section
Small (<0.1 m²)

Expand to show TLE details & history
Last TLE update: 1 day ago

TLE from 1 day ago
0 NOAA 16 DEB
1 42355U 00055QX  26035.85779235  .00003496  00000-0  18105-2 0  9990
2 42355  98.6944  64.8056 0035279 255.5979 104.1278 14.15196171511880
Epoch: 2026-02-04T20:35Z
TLE epoch observation values (Epoch: 2026-02-04T20:35:13.259Z)
Latitude
-0.00001°
Longitude
-19.01799°
Altitude
850.856 km
Speed
7.424 km/s
True Right ascension
04h 19m 13s
True Declination
0° 00' 00"
Sunlit
Object was in daylight at epoch
Visualization orbit readout
Latitude
Unknown
Longitude
Unknown
Altitude
Unknown
Speed
Unknown
Apparent Right ascension
Unknown
Apparent Declination
Unknown
Sunlit
N/A
Visualization observer readout
Local Sidereal Time
09:36:52
Azimuth
Unknown
Elevation
Unknown
Doppler factor
Unknown
Orbital elements
Apogee altitude
864.27 km
Perigee altitude
813.348 km
Semi-major axis
7,216.946 km
Eccentricity
0.00353
Inclination
98.6944°
RAAN
64.8056°
Arg. of periapsis
255.5979°
True anomaly
104.51942°
Mean anomaly
104.1278°
Eccentric anomaly
104.32365°
Mean motion
3.54008 °/min
Orbital period
101.69 mins
BSTAR
0.0018105
Loading maneuver chart data...
Computing Atmospheric mass density...
Loading historical data...
Loading historical data...
Loading historical data...
Loading historical data...
Loading historical data...
Loading historical data...
Loading historical data...

Documentation

Showing up to 5 results
|